Location: Church Bay
(53.3667°N, 4.5667°W)
Time: 01:48:06
(UTC+00:00)

Daily predictions for brighter satellites

Satellite Brightness Start Highest point End
(mag) Time Altitude Azimuth Time Altitude Azimuth Time Altitude Azimuth
Cosmos 2227 Rocket 3.7 00:04:51 10° NNW 00:08:30 32° N 00:08:30 32° N
Cosmos 1943 Rocket 3.8 00:24:28 31° N 00:24:28 31° N 00:27:56 10° NNE
ATLAS 2AS CENTAUR R/B 4.1 00:46:45 10° WNW 00:54:03 39° N 01:00:58 10° ENE
Cosmos 2297 Rocket 3.9 00:50:52 10° NNW 00:53:25 28° NNW 00:53:25 28° NNW
SL-16 R/B 3.3 01:04:18 48° NE 01:04:18 48° NE 01:09:24 10° N
Cosmos 2369 Rocket 3.7 01:07:25 30° NNW 01:07:25 30° NNW 01:11:32 10° NNE
Cosmos 2263 Rocket 4.0 01:13:25 10° NNW 01:18:13 27° NE 01:23:01 10° E
USA 234 3.4 01:21:53 10° E 01:28:11 67° NNE 01:28:11 67° NNE
CZ-4C R/B 3.9 01:43:22 21° NW 01:46:42 35° N 01:53:15 10° ENE
Cosmos 2366 rocket 4.4 01:42:04 10° N 01:46:59 57° NNW 01:46:59 57° NNW
Cosmos 2218 Rocket 4.5 01:46:49 10° NNW 01:51:47 56° NNW 01:51:47 56° NNW
Resurs 1-4 Rocket 3.1 01:48:06 10° NNE 01:51:57 44° NE 01:51:57 44° NE
Cosmos 2227 Rocket 4.2 01:48:56 10° NW 01:50:17 18° NW 01:50:17 18° NW
CZ-2D R/B 3.0 01:51:17 10° NNE 01:55:14 46° NE 01:55:14 46° NE
SJ 16-02 3.3 01:59:09 10° N 02:02:54 26° NE 02:03:00 26° NE
Cosmos 1943 Rocket 4.4 02:05:58 13° NW 02:08:05 16° NNW 02:11:27 10° NNE
Lacrosse 5 3.3 02:13:50 32° E 02:13:50 32° E 02:16:45 10° ENE
ATLAS 5 CENTAUR R/B 3.0 02:16:15 37° NNE 02:16:15 37° NNE 02:19:48 10° NE
NPP 4.1 02:09:47 10° NNE 02:14:20 59° NE 02:14:20 59° NE
Cosmos 2181 Rocket 4.2 02:22:13 59° NW 02:22:13 59° NW 02:27:39 10° N
NOSS 3-4 (A) 4.4 02:16:08 10° NW 02:22:37 52° NNE 02:29:49 10° ESE
NOSS 3-4 (C) 4.4 02:16:15 10° NW 02:22:43 52° NNE 02:29:55 10° ESE
ARIANE 5 R/B 4.2 02:20:03 10° NE 02:24:15 25° E 02:25:30 23° ESE
USA 267 4.5 02:27:42 10° ENE 02:33:07 27° SE 02:34:08 26° SE
SL-19 R/B 4.5 02:34:09 61° NNW 02:34:09 61° NNW 02:38:55 10° NNW
Cosmos 2369 3.9 02:33:25 65° ESE 02:33:25 65° ESE 02:38:55 10° NE
IRS-1D 3.9 02:30:17 10° NNE 02:35:33 62° E 02:35:33 62° E
CBERS-1 4.3 02:35:11 10° NNE 02:40:08 62° E 02:40:08 62° E
Cosmos 1782 4.3 02:42:19 35° ENE 02:42:19 35° ENE 02:45:17 10° NNE
Cosmos 972 Rocket 4.2 02:43:13 61° ENE 02:43:13 61° ENE 02:47:45 10° NNE
ADEOS II 2.2 02:39:57 10° NNE 02:45:12 67° ESE 02:45:20 67° ESE
ATLAS 2AS CENTAUR R/B 3.4 02:38:52 10° NW 02:46:30 58° NNE 02:53:35 10° ESE
SL-16 R/B 3.6 02:49:24 30° WNW 02:49:24 30° WNW 02:52:59 10° NNW
IDEFIX/ARIANE 42P 4.0 02:44:05 10° NNE 02:48:49 32° E 02:51:13 22° SE
Cosmos 1697 Rocket 2.5 02:56:36 82° W 02:56:42 83° WNW 03:02:22 10° NNE
Cosmos 389 Rocket 4.1 03:00:21 34° NE 03:00:21 34° NE 03:02:46 10° NNE
Cosmos 2263 Rocket 2.0 02:57:11 10° NNW 03:02:51 87° WSW 03:08:34 10° SSE
Cosmos 1980 Rocket 2.3 03:02:25 60° SSE 03:03:12 68° ESE 03:08:50 10° NE
Cosmos 2360 4.1 03:02:51 75° SSW 03:03:23 88° ESE 03:09:11 10° NNE
Cosmos 1151 Rocket 3.7 03:05:12 47° NNW 03:05:12 47° NNW 03:08:26 10° N
Cosmos 1515 Rocket 3.8 03:05:07 69° ENE 03:05:07 69° ENE 03:09:16 10° NNE
USA 307 3.6 03:06:10 49° E 03:06:10 49° E 03:09:25 10° ENE
Cosmos 1844 Rocket 4.2 03:01:58 10° NNW 03:07:09 35° NE 03:12:19 10° ESE
USA 308 3.5 03:09:21 53° E 03:09:21 53° E 03:12:45 10° ENE
Cosmos 1500 4.0 03:05:34 10° N 03:08:45 49° NE 03:08:45 49° NE
Cosmos 44 3.4 03:10:35 58° ESE 03:10:35 58° ESE 03:15:11 10° NE
USA 234 3.1 03:04:46 10° ESE 03:11:20 84° SSW 03:15:31 25° WNW
Cosmos 1328 Rocket 4.1 03:12:15 51° NNW 03:12:15 51° NNW 03:15:49 10° N
Cosmos 2322 Rocket 4.1 03:08:23 12° SSE 03:12:27 25° ESE 03:16:58 10° NE
Cosmos 1821 Rocket 4.1 03:07:05 10° NNW 03:13:09 52° W 03:13:09 52° W
Cosmos 1666 4.4 03:10:58 10° N 03:14:27 32° ENE 03:17:53 10° SE
Cosmos 1656 4.2 03:14:17 41° WNW 03:14:42 42° NW 03:19:59 10° NNE
CZ-4B R/B 3.4 03:10:11 10° NNE 03:15:18 73° WNW 03:15:35 70° W
CZ-2D R/B 4.5 03:12:23 10° NNE 03:16:28 44° E 03:17:37 35° SE
Cosmos 1934 Rocket 3.8 03:12:55 10° NNW 03:18:59 74° W 03:20:56 45° S
CZ-3B R/B 2.0 03:21:33 76° SSE 03:21:33 76° SSE 03:29:39 10° ENE
Cosmos 1812 4.0 03:21:36 32° SE 03:22:34 38° E 03:26:11 10° NNE
SL-16 R/B 3.5 03:20:04 18° SSE 03:23:34 34° ESE 03:28:38 10° NE
IRS-1C 4.0 03:20:38 10° NNE 03:26:02 90° NE 03:27:27 51° SSW
Cosmos 1238 Rocket 3.9 03:21:01 10° NNW 03:27:36 70° W 03:30:02 38° SSW
ATLAS CENTAUR R/B 3.8 03:14:30 10° WNW 03:29:04 72° N 03:34:16 10° E
SL-24 R/B 4.5 03:29:46 50° SSW 03:31:02 70° WSW 03:36:52 10° NNW
Spot 4 Rocket 4.5 03:26:24 10° NNE 03:31:31 59° ESE 03:34:18 26° S
Cosmos 1898 Rocket 3.4 03:26:14 10° NNW 03:31:31 88° ENE 03:36:49 10° SSE
CZ-2C R/B 4.5 03:27:29 10° NE 03:31:50 27° E 03:36:11 10° SSE
Cosmos 2227 4.2 03:26:27 10° NW 03:31:59 54° WSW 03:32:34 52° SW
Resurs 1-4 Rocket 3.1 03:28:23 10° N 03:32:54 29° WNW 03:33:02 29° WNW
Meteor 1-26 Rocket 4.1 03:34:32 53° WSW 03:35:32 64° WNW 03:40:58 10° N
CZ-2D R/B 3.2 03:31:50 10° N 03:36:19 29° WNW 03:36:33 28° WNW
CZ-4C R/B 3.6 03:30:14 10° NW 03:36:38 51° NNE 03:44:13 10° ESE
ASTEX 1 3.3 03:31:55 10° N 03:36:57 85° W 03:38:38 43° SSW
Cosmos 1869 Rocket 3.4 03:34:54 10° NNW 03:39:17 88° W 03:40:47 41° S
MSX 4.3 03:35:17 10° NNE 03:41:01 59° ESE 03:45:54 14° S
SJ 16-02 2.5 03:37:28 10° NNW 03:39:51 29° NW 03:39:51 29° NW
IRIDIUM 104 4.5 03:38:25 10° N 03:43:40 74° E 03:48:53 10° S
Nadezhda 3 Rocket 4.3 03:46:18 38° WSW 03:47:43 44° WNW 03:53:37 10° N
Landsat 5 3.7 03:44:40 10° SSE 03:49:10 79° ENE 03:53:36 10° NNW
Cosmos 2228 Rocket 2.9 03:48:02 49° SSW 03:49:11 82° W 03:53:39 10° N
Meteor 1-5 Rocket 4.0 03:45:06 10° NNW 03:50:24 69° W 03:55:47 10° S
SL-08 R/B 4.2 03:52:01 31° WNW 03:52:01 31° WNW 03:55:07 10° NNW
Cosmos 1605 Rocket 4.0 03:45:19 10° NNW 03:51:41 67° W 03:58:01 10° S
Cosmos 1937 Rocket 3.3 03:47:26 10° NNW 03:52:38 86° WSW 03:57:45 10° SSE
IRIDIUM 114 4.3 03:47:34 10° N 03:52:50 86° E 03:58:04 10° S
Lacrosse 5 1.9 03:53:01 40° W 03:54:46 70° NNW 03:59:51 10° ENE
CZ-4C R/B 2.9 03:55:01 33° SSE 03:56:32 87° WSW 04:00:04 10° NNW
ERBS 2.5 03:58:34 55° SSE 03:58:47 56° SSE 04:02:06 10° ENE
H-2A R/B 2.0 03:55:17 10° SSE 03:59:43 85° WSW 04:04:16 10° NNW
USA 32 4.2 03:55:15 10° N 04:00:33 77° E 04:05:48 10° SSE
ATLAS 5 CENTAUR R/B 3.5 03:57:47 16° NW 04:00:41 27° N 04:05:16 10° NE
Meteor 1-10 Rocket 4.3 03:56:19 16° S 04:01:05 83° ESE 04:07:03 10° NNE
IRIDIUM 103 4.2 03:56:44 10° N 04:01:59 81° W 04:07:12 10° S
ARIANE 5 R/B 2.6 03:58:43 10° N 04:03:45 59° WNW 04:05:49 33° SW
CSL-04 DEB 4.4 03:59:31 10° SSE 04:03:52 79° WSW 04:08:18 10° NNW
Meteor 2-6 Rocket 4.2 04:00:49 22° SSW 04:04:40 80° WNW 04:10:37 10° NNE
ERS-2 2.5 04:01:16 10° SSE 04:04:53 64° ENE 04:08:32 10° N
IRS-P3 4.5 04:00:01 10° N 04:05:06 46° WNW 04:07:00 33° WSW
SL-4 R/B 3.5 04:03:35 23° S 04:05:25 32° SSE 04:09:40 10° E
CZ-2C R/B 2.7 04:02:18 10° NNE 04:06:06 82° ESE 04:08:05 28° S
Cosmos 2278 4.1 04:05:20 32° WSW 04:07:36 49° NW 04:13:09 10° NNE
Cosmos 1763 Rocket 3.8 04:04:27 18° SSW 04:08:27 69° ESE 04:13:43 10° NNE
GENESIS II 4.2 04:09:22 43° SW 04:10:37 82° NW 04:14:41 10° NE
USA 305 2.8 04:10:20 38° W 04:11:55 84° N 04:16:11 10° E
NOSS 3-4 (A) 3.8 04:07:05 10° NW 04:13:53 65° SW 04:21:25 10° SSE
NOSS 3-4 (C) 3.8 04:07:11 10° NW 04:13:59 66° SW 04:21:32 10° SSE
COSMOS 2455 4.3 04:08:48 10° NW 04:14:25 38° NNE 04:20:01 10° E
USA 306 2.8 04:14:32 35° W 04:16:17 83° N 04:20:33 10° E
USA 267 3.4 04:10:23 10° ENE 04:16:56 69° SSE 04:21:28 21° SW
Cosmos 1782 4.0 04:17:56 25° WNW 04:17:58 25° WNW 04:21:20 10° N
IRIDIUM 106 4.3 04:15:08 10° N 04:20:16 59° W 04:25:23 10° SSW
ADEOS II 3.2 04:20:14 10° N 04:24:32 26° WNW 04:26:15 22° W
CZ-4B R/B 2.1 04:21:27 10° SSE 04:24:36 54° ENE 04:27:52 10° N
NOSS 3-3 (A) 4.0 04:22:09 24° SW 04:26:06 80° NW 04:33:06 10° NE
NOSS 3-3 (C) 4.0 04:22:16 24° SW 04:26:13 81° NW 04:33:11 10° NE
Cosmos 540 Rocket 4.2 04:21:58 10° S 04:26:59 54° ESE 04:32:03 10° NNE
IDEFIX/ARIANE 42P 2.9 04:23:32 10° N 04:28:37 49° WNW 04:32:01 20° SW
PAYLOAD A 3.9 04:24:24 10° NNE 04:29:08 78° ESE 04:33:50 10° SSW
ADEOS Rocket 3.0 04:22:41 10° SSE 04:29:13 86° WSW 04:35:09 10° NNW
Cosmos 2100 Rocket 4.0 04:24:29 10° NNW 04:30:55 79° W 04:37:16 10° S
Cosmos 921 Rocket 3.5 04:29:44 28° WSW 04:31:23 40° WNW 04:35:23 10° NNE
COSMO-SKYMED 1 4.4 04:27:57 10° SE 04:31:52 34° ENE 04:35:49 10° N
Cosmos 389 Rocket 4.2 04:34:13 18° WNW 04:34:16 18° WNW 04:36:51 10° NNW
Cosmos 1727 Rocket 4.0 04:28:22 10° SSW 04:34:41 72° WNW 04:41:02 10° N
Cosmos 2360 Rocket 2.9 04:31:32 10° S 04:37:02 53° ESE 04:42:32 10° NE
ATLAS 2AS CENTAUR R/B 2.9 04:30:14 10° NW 04:37:39 58° SW 04:44:27 10° SSE
Cosmos 1459 Rocket 3.8 04:31:47 10° NNW 04:37:53 76° W 04:43:55 10° S
Cosmos 1570 Rocket 4.5 04:33:22 10° SSW 04:38:38 65° ESE 04:43:58 10° NNE
Cosmos 1802 Rocket 4.0 04:33:40 10° NNW 04:39:54 87° W 04:46:11 10° S
Cosmos 1484 Rocket 4.4 04:37:35 10° NNE 04:41:22 38° E 04:45:07 10° SSE
Cosmos 1697 Rocket 4.0 04:38:20 16° WNW 04:41:31 25° NW 04:46:08 10° NNE
Cosmos 468 Rocket 4.0 04:37:27 16° SW 04:41:42 65° WNW 04:46:56 10° NNE
SAR-Lupe-4 3.8 04:38:12 10° SSE 04:41:47 74° ENE 04:45:23 10° NNW
Cosmos 1908 Rocket 4.2 04:38:57 10° N 04:43:23 60° ENE 04:47:49 10° SSE
USA 307 2.9 04:42:21 20° W 04:45:15 81° N 04:49:32 10° E
Cosmos 2263 Rocket 3.4 04:42:14 10° WNW 04:46:01 19° W 04:47:45 16° WSW
Cosmos 44 Rocket 3.8 04:42:38 10° SSW 04:47:17 56° SE 04:52:05 10° NE
Cosmos 1980 Rocket 3.1 04:44:11 18° W 04:47:40 33° NW 04:52:45 10° NNE
Meteor 1-11 Rocket 4.1 04:42:19 10° NNW 04:47:40 40° W 04:52:53 10° SSW
USA 308 2.9 04:45:33 19° W 04:48:36 81° N 04:52:52 10° E
Meteor 1-4 Rocket 3.3 04:47:58 21° WSW 04:49:38 33° WNW 04:52:55 10° N
Cosmos 1666 3.6 04:46:42 10° NNW 04:49:56 27° W 04:52:53 11° SW
Cosmos 1844 Rocket 2.7 04:45:50 10° NW 04:51:23 61° WSW 04:56:57 10° SSE
Cosmos 44 4.0 04:49:00 17° W 04:52:00 37° NNW 04:56:30 10° NE
Okean 1 4.4 04:48:13 10° S 04:52:08 49° E 04:56:03 10° NNE
Cosmos 2278 Rocket 3.4 04:48:07 10° NNW 04:53:33 44° NE 04:58:57 10° ESE
Meteor 1-31 Rocket 4.2 04:50:18 10° NNE 04:53:57 40° E 04:57:36 10° S
USA 234 3.8 04:48:57 10° SSE 04:54:55 37° SW 05:00:54 10° WNW
Cosmos 2322 Rocket 2.2 04:50:18 10° SW 04:55:59 75° NW 05:01:44 10° NNE
Cosmos 1707 Rocket 3.8 04:52:06 10° SSW 04:56:18 48° WNW 05:00:33 10° N
Cosmos 2123 Rocket 4.4 04:50:11 10° S 04:56:23 68° E 05:02:40 10° NNE
Cosmos 1844 3.6 04:51:26 10° NW 04:56:58 65° WSW 05:02:28 10° SSE
Cosmos 1812 4.0 04:56:42 17° WSW 04:58:29 24° WNW 05:01:40 10° NNW
USA 276 3.5 04:57:43 18° WSW 04:59:09 25° SSW 05:01:52 10° SE
SAR-Lupe-1 4.0 04:57:13 10° S 05:00:47 74° WSW 05:04:24 10° NNW
Meteor 1-27 Rocket 3.9 04:55:07 10° SSW 05:00:59 60° WNW 05:06:48 10° N
Cosmos 1437 Rocket 3.1 04:59:00 10° S 05:02:46 69° ESE 05:06:40 10° NNE
Cosmos 1536 3.7 04:59:34 10° NNW 05:03:07 29° W 05:06:38 10° SSW
Meteor 2-9 Rocket 4.4 04:57:37 10° N 05:03:10 75° ENE 05:08:33 10° SSE
Cosmos 372 Rocket 4.2 05:01:47 10° NW 05:06:42 45° WSW 05:11:33 10° S
Cosmos 1733 Rocket 3.5 05:02:57 10° NNW 05:06:58 37° W 05:10:56 10° SSW
SL-16 R/B 2.4 05:01:58 10° SW 05:07:28 56° NW 05:13:05 10° NNE
CZ-2C R/B 2.6 05:05:20 10° N 05:10:23 58° WNW 05:15:28 10° SW
Cosmos 2173 Rocket 4.3 05:08:20 10° NNW 05:14:18 45° W 05:20:17 10° SSW
Cosmos 2237 4.2 05:09:04 10° SSW 05:14:48 84° WNW 05:20:33 10° NNE
ALOS 2.5 05:10:07 10° NNE 05:14:49 77° ESE 05:19:29 10° S
Cosmos 2242 Rocket 3.8 05:12:17 10° S 05:16:40 75° E 05:21:07 10° NNE
Cosmos 1689 Rocket 2.0 05:14:31 10° S 05:17:29 78° WSW 05:20:30 10° NNW
Intercosmos 25 2.8 05:14:05 10° SSW 05:17:35 80° WNW 05:20:48 10° N
SKYMED 2 3.6 05:15:26 10° SSE 05:19:46 88° ENE 05:24:09 10° NNW
Cosmos 2285 Rocket 4.1 05:14:03 10° NNW 05:20:31 88° ENE 05:26:58 10° SSE
PSLV R/B 4.1 05:17:57 10° N 05:21:52 38° WNW 05:25:44 10° SW
Cosmos 2298 Rocket 4.3 05:18:26 10° NW 05:23:33 48° WSW 05:28:37 10° S
Cosmos 2219 Rocket 3.3 05:20:10 10° S 05:25:35 49° ESE 05:31:04 10° NE
CZ-4C R/B 3.0 05:18:44 10° NW 05:25:42 72° SW 05:33:50 10° SSE
Cosmos 1862 Rocket 3.9 05:26:51 10° SW 05:31:01 43° WNW 05:35:11 10° N
RESURS DK-1 3.0 05:27:04 10° NNW 05:31:13 60° NE 05:35:21 10° SE
Meteor 2-20 Rocket 4.5 05:27:34 10° SSW 05:33:43 75° WNW 05:39:51 10° N
ERBS 2.8 05:31:50 10° W 05:35:07 50° NNW 05:38:25 10° ENE
